FW3278 Weather Reports


Display with metric or nautical units.
time (UTC)temp
F
wind
direction
speed
MPH
gust
MPH
rain 1hr
in
rain 24hr
in
rain mn
in
humidity
%
barometer
mb
20260506122704 47 157 5.0 13.0 0.00 0.54 0.54 91 1016.7
20260506121804 47 157 4.0 14.0 0.00 0.54 0.54 92 1016.6
20260506120904 47 157 4.0 12.0 0.01 0.54 0.54 93 1016.6
20260506120004 48 157 3.0 12.0 0.02 0.54 0.54 93 1016.7
20260506115404 48 157 2.0 10.0 0.02 0.54 0.54 93 1016.6
20260506114504 48 157 2.0 8.0 0.04 0.54 0.54 93 1016.5
20260506113604 48 157 3.0 10.0 0.07 0.54 0.54 93 1016.4
20260506112704 49 157 3.0 19.0 0.11 0.54 0.54 93 1016.3
20260506111825 49 157 2.0 14.0 0.17 0.54 0.54 93 1016.3
20260506110903 49 157 2.0 10.0 0.20 0.53 0.53 93 1016.3
20260506110004 49 157 3.0 11.0 0.21 0.52 0.52 93 1016.3
20260506105404 50 157 3.0 16.0 0.26 0.52 0.52 92 1016.2
20260506104525 50 157 3.0 16.0 0.25 0.50 0.50 92 1016.0
20260506103625 51 157 3.0 11.0 0.22 0.47 0.47 92 1016.0
20260506102703 51 157 4.0 11.0 0.18 0.43 0.43 92 1015.7
20260506101804 51 157 3.0 15.0 0.13 0.37 0.37 92 1015.8
20260506095405 53 157 3.0 11.0 0.09 0.27 0.27 92 1015.5
20260506094505 53 157 4.0 12.0 0.11 0.26 0.26 92 1014.8
20260506093605 53 157 3.0 13.0 0.14 0.26 0.26 92 1014.8
20260506092705 53 157 4.0 9.0 0.17 0.26 0.26 91 1014.6
20260506091805 53 157 5.0 13.0 0.23 0.25 0.25 91 1014.6
20260506090905 54 157 6.0 14.0 0.23 0.24 0.24 91 1014.8
20260506090005 54 157 6.0 16.0 0.20 0.20 0.20 90 1014.9
20260506085405 54 157 5.0 16.0 0.18 0.18 0.18 90 1015.1
20260506084505 54 157 5.0 16.0 0.15 0.15 0.15 88 1014.9
20260506083605 54 157 3.0 15.0 0.12 0.12 0.12 87 1014.9
20260506082726 55 157 3.0 8.0 0.09 0.09 0.09 85 1014.8
20260506081805 56 157 5.0 11.0 0.02 0.02 0.02 82 1014.9
20260506080905 56 157 5.0 11.0 0.01 0.01 0.01 79 1014.3
20260506072726 57 157 7.0 17.0 0.00 0.00 0.00 74 1013.7
20260506071805 57 157 8.0 16.0 0.00 0.00 0.00 73 1013.6
20260506070905 58 157 9.0 20.0 0.00 0.00 0.00 72 1013.7
20260506061805 60 157 9.0 19.0 0.00 0.00 0.00 68 1014.3
20260506060904 60 157 9.0 22.0 0.00 0.00 0.00 67 1014.3
20260506050904 60 157 9.0 23.0 0.00 0.00 0.00 66 1015.3
20260506044525 60 157 7.0 15.0 0.00 0.00 0.00 67 1015.7
20260506043605 60 157 7.0 16.0 0.00 0.00 0.00 67 1016.1
20260506042705 60 157 8.0 14.0 0.00 0.00 0.00 67 1016.2
20260506041804 60 157 8.0 22.0 0.00 0.00 0.00 65 1016.2
20260506040905 61 157 9.0 20.0 0.00 0.00 0.00 65 1016.2
20260506040004 62 157 8.0 18.0 0.00 0.00 0.00 63 1016.5
20260506035404 62 157 8.0 16.0 0.00 0.00 0.00 63 1016.5
20260506034504 62 157 7.0 16.0 0.00 0.00 0.00 63 1016.6
20260506033605 61 157 7.0 16.0 0.00 0.00 0.00 64 1016.7
20260506032704 60 157 5.0 12.0 0.00 0.00 0.00 66 1016.8
20260506031805 60 157 7.0 12.0 0.00 0.00 0.00 67 1017.1
20260506030904 60 157 6.0 16.0 0.00 0.00 0.00 65 1017.3
20260506030005 61 157 7.0 13.0 0.00 0.00 0.00 65 1017.4
20260506025426 60 157 7.0 15.0 0.00 0.00 0.00 66 1017.5
20260506024504 59 157 7.0 15.0 0.00 0.00 0.00 67 1017.7
20260506023625 58 157 7.0 15.0 0.00 0.00 0.00 67 1017.9
20260506022704 59 157 7.0 14.0 0.00 0.00 0.00 66 1018.2
20260506021804 58 157 6.0 14.0 0.00 0.00 0.00 67 1018.3
20260506020904 58 157 5.0 13.0 0.00 0.00 0.00 67 1018.5
20260506020025 58 157 5.0 14.0 0.00 0.00 0.00 68 1018.6
20260506015404 58 157 5.0 14.0 0.00 0.00 0.00 68 1018.8
20260506014505 58 157 6.0 13.0 0.00 0.00 0.00 67 1019.0
20260506013604 58 157 7.0 14.0 0.00 0.00 0.00 67 1019.1
20260506012704 58 157 7.0 14.0 0.00 0.00 0.00 67 1019.3
20260506011804 58 157 7.0 14.0 0.00 0.00 0.00 67 1019.4
20260506010926 58 157 7.0 14.0 0.00 0.00 0.00 66 1019.5
20260506010004 58 157 6.0 16.0 0.00 0.00 0.00 67 1019.5
20260506005404 58 157 5.0 20.0 0.00 0.00 0.00 67 1019.5
20260506004505 58 157 5.0 16.0 0.00 0.00 0.00 67 1019.5
20260506003604 58 157 4.0 11.0 0.00 0.00 0.00 68 1019.7
20260506002705 57 157 4.0 11.0 0.00 0.00 0.00 69 1019.7
20260506001804 57 157 5.0 10.0 0.00 0.00 0.00 70 1019.9
20260506000904 57 157 4.0 13.0 0.00 0.00 0.00 69 1020.0
20260506000004 57 157 4.0 8.0 0.00 0.00 0.00 70 1020.0
20260505235405 57 157 4.0 8.0 0.00 0.00 0.00 70 1020.0
20260505234505 56 157 5.0 10.0 0.00 0.00 0.00 71 1020.0
20260505233605 56 157 5.0 12.0 0.00 0.00 0.00 71 1020.1
20260505232705 56 157 5.0 13.0 0.00 0.00 0.00 72 1020.2
20260505231804 56 157 4.0 12.0 0.00 0.00 0.00 71 1020.3
20260505230904 56 157 4.0 11.0 0.00 0.00 0.00 72 1020.3
20260505230004 56 157 3.0 6.0 0.00 0.00 0.00 72 1020.4
20260505225404 56 157 4.0 6.0 0.00 0.00 0.00 73 1020.4
20260505224525 55 157 3.0 10.0 0.00 0.00 0.00 72 1020.4
20260505223604 55 157 3.0 6.0 0.00 0.00 0.00 73 1020.4
20260505222704 55 157 3.0 8.0 0.00 0.00 0.00 73 1020.4
20260505221805 55 157 2.0 6.0 0.00 0.00 0.00 72 1020.4
20260505220904 55 157 3.0 6.0 0.00 0.00 0.00 72 1020.4
20260505220004 55 157 3.0 11.0 0.00 0.00 0.00 72 1020.4
20260505215404 55 157 2.0 6.0 0.00 0.00 0.00 72 1020.4
20260505214525 55 157 2.0 5.0 0.00 0.00 0.00 73 1020.4
20260505213604 55 157 2.0 5.0 0.00 0.00 0.00 73 1020.4
20260505212704 55 157 2.0 8.0 0.00 0.00 0.00 73 1020.4
20260505211804 55 157 3.0 8.0 0.00 0.00 0.00 73 1020.4
20260505210904 54 157 2.0 8.0 0.00 0.00 0.00 73 1020.4
20260505210004 54 157 2.0 6.0 0.00 0.00 0.00 74 1020.4
20260505205404 54 157 2.0 6.0 0.00 0.00 0.00 74 1020.4
20260505204504 54 157 2.0 6.0 0.00 0.00 0.00 73 1020.4
20260505203604 55 157 2.0 5.0 0.00 0.00 0.00 74 1020.4
20260505202725 54 157 3.0 6.0 0.00 0.00 0.00 74 1020.3
20260505201804 54 157 3.0 9.0 0.00 0.00 0.00 74 1020.4
20260505200904 54 157 2.0 9.0 0.00 0.00 0.00 74 1020.4
20260505200004 54 157 2.0 4.0 0.00 0.00 0.00 74 1020.4
20260505195404 54 157 2.0 5.0 0.00 0.00 0.00 74 1020.4
20260505194504 54 157 2.0 5.0 0.00 0.00 0.00 75 1020.5
20260505193604 54 157 2.0 6.0 0.00 0.00 0.00 75 1020.5
20260505192704 54 157 2.0 6.0 0.00 0.00 0.00 75 1020.5
20260505191804 54 157 2.0 5.0 0.00 0.00 0.00 75 1020.6
20260505190904 54 157 2.0 4.0 0.00 0.00 0.00 75 1020.6
20260505190004 54 157 2.0 4.0 0.00 0.00 0.00 75 1020.7
20260505185425 54 157 2.0 4.0 0.00 0.00 0.00 75 1020.8
20260505184525 54 157 2.0 5.0 0.00 0.00 0.00 75 1020.7
20260505183604 55 157 2.0 6.0 0.00 0.00 0.00 75 1020.7
20260505182704 55 157 3.0 8.0 0.00 0.00 0.00 75 1020.7
20260505181825 54 157 3.0 8.0 0.00 0.00 0.00 75 1020.6
20260505180904 54 157 3.0 6.0 0.00 0.00 0.00 76 1020.6
20260505180004 54 157 3.0 6.0 0.00 0.00 0.00 76 1020.7
20260505175425 54 157 3.0 8.0 0.00 0.00 0.00 77 1020.7
20260505174504 54 157 3.0 8.0 0.00 0.00 0.00 78 1020.7
20260505173604 54 157 2.0 5.0 0.00 0.00 0.00 79 1020.7
20260505172704 54 157 2.0 4.0 0.00 0.00 0.00 80 1020.8
20260505171825 54 157 1.0 4.0 0.00 0.00 0.00 81 1020.9
20260505170904 54 157 1.0 4.0 0.00 0.00 0.00 81 1021.0
20260505170004 54 157 1.0 4.0 0.00 0.00 0.00 81 1021.0
20260505165404 54 157 2.0 4.0 0.00 0.00 0.00 81 1021.1
20260505164526 54 157 2.0 4.0 0.00 0.00 0.00 81 1021.0
20260505163604 54 157 2.0 5.0 0.00 0.00 0.00 81 1021.2
20260505162705 54 157 1.0 4.0 0.00 0.00 0.00 81 1021.2
20260505161825 54 157 1.0 4.0 0.00 0.00 0.00 81 1021.3
20260505160904 54 157 2.0 4.0 0.00 0.00 0.00 81 1021.4
20260505152704 54 157 2.0 4.0 0.00 0.00 0.00 82 1021.8
20260505151804 54 157 1.0 3.0 0.00 0.00 0.00 82 1021.9
20260505150904 54 157 1.0 4.0 0.00 0.00 0.00 82 1021.9
20260505124504 55 157 1.0 2.0 0.00 0.00 0.00 78 1022.3
20260505123604 55 157 0.0 3.0 0.00 0.00 0.00 78 1022.4